Wind_Speed
17 17 17 17 17 16 16 15 15 16 16 17 17 18 17 16 16 15 14 12 12 14 16 17 17 19 21 24 26 25 23 25 26 29 31 29 29 34 33 31 32 32 32 33 34 35 33 31 30 28 27 27 27 28 28 27 27 26 26 25 24 23 22 20 19 19 18 17 17 16 16 16 16 15 15 14 14 15 16 15 15 16 18 19 21
15 15 15 16 15 15 14 14 14 15 15 16 17 18 18 17 16 16 16 15 15 16 17 16 16 18 20 22 24 23 21 22 24 28 31 30 30 32 31 30 31 31 33 34 34 33 31 30 29 28 29 30 30 29 29 29 28 27 26 26 25 24 22 20 19 19 19 18 17 18 17 17 17 17 16 15 14 15 16 16 16 17 19 20 21
14 15 15 15 14 14 13 13 14 15 16 16 17 18 19 20 19 18 19 18 18 18 19 19 19 20 21 21 21 21 21 21 22 26 29 29 30 31 30 30 31 31 33 34 34 32 32 31 31 31 31 32 31 31 31 31 28 26 26 26 25 24 23 22 21 20 20 19 18 18 18 18 18 17 17 16 15 14 15 16 17 18 19 20 21
15 16 16 16 15 14 14 15 15 16 17 18 18 18 19 20 22 21 21 19 17 17 19 20 21 22 23 23 22 21 21 22 23 25 28 29 29 30 30 29 31 32 33 33 33 33 33 33 32 32 31 32 33 34 33 30 27 26 26 26 26 25 24 23 23 21 20 20 19 19 19 19 19 18 18 16 14 13 13 15 16 17 19 20 21
17 17 18 18 17 17 16 16 17 17 18 19 20 20 19 19 21 23 23 21 18 17 18 20 21 23 25 25 22 21 22 23 24 25 28 28 27 28 28 27 29 31 31 32 33 34 33 32 33 33 32 33 35 34 32 28 25 26 26 26 26 26 25 24 24 24 23 22 21 21 21 20 20 19 18 16 14 13 13 14 15 17 18 19 20
18 18 19 19 20 20 20 19 19 20 20 21 22 22 22 21 20 21 23 23 20 18 18 20 22 23 26 25 22 22 23 24 25 26 27 28 28 27 27 27 28 29 30 32 33 33 32 32 33 33 33 34 34 32 29 26 25 26 26 26 25 26 26 25 25 25 24 23 22 23 23 21 21 20 18 16 14 13 13 13 14 16 18 19 20
19 19 20 20 21 22 22 22 22 22 23 23 24 24 24 23 22 20 21 22 22 20 19 20 21 22 24 24 22 23 23 24 25 26 27 28 29 28 28 27 29 29 30 32 34 34 33 33 33 33 35 34 32 29 26 25 26 27 26 26 26 26 26 25 25 25 24 23 25 26 24 23 23 22 20 18 15 14 13 12 12 14 16 18 19
20 20 21 21 21 21 22 23 23 24 24 25 26 26 25 24 23 21 20 20 22 21 21 21 20 20 22 22 22 23 23 24 27 27 28 28 30 30 28 27 29 30 31 32 34 34 34 34 34 34 34 31 29 26 25 25 26 27 27 27 27 27 26 26 27 27 26 26 27 27 25 24 23 23 22 20 18 15 12 11 12 13 15 16 18
20 21 21 21 21 21 21 22 22 23 24 25 27 27 26 24 23 22 21 20 21 22 22 22 20 21 22 22 22 24 25 26 27 28 28 29 30 30 29 28 29 31 32 33 34 33 34 34 33 32 30 28 26 25 25 26 26 26 26 27 27 28 28 29 30 29 28 28 27 26 26 25 24 24 24 21 19 16 14 13 13 14 15 16 18
20 20 20 20 20 20 20 20 21 22 23 24 26 27 26 24 23 22 21 20 20 21 23 23 22 23 23 23 24 25 25 26 27 27 27 28 29 29 30 30 29 29 30 31 31 30 30 30 28 27 26 25 24 25 25 24 25 25 25 26 28 29 29 31 31 30 29 29 26 25 27 27 25 25 26 24 22 19 17 16 15 15 17 18 18
20 19 19 19 20 20 20 20 20 22 23 24 26 27 26 25 23 23 21 20 20 21 23 25 25 24 25 25 25 24 24 25 26 25 26 28 29 29 29 29 29 28 29 29 28 26 26 26 26 25 24 23 25 26 26 25 25 26 26 27 29 29 30 32 32 30 28 28 26 25 27 27 25 25 25 26 26 23 20 18 16 16 18 19 19
19 18 18 17 18 18 19 19 20 22 23 25 26 27 27 26 24 24 22 20 20 21 22 25 27 26 26 26 24 22 23 24 24 25 27 28 30 30 29 27 27 27 27 26 26 24 25 27 27 25 24 25 25 26 26 26 26 27 27 28 29 29 29 30 30 29 27 27 26 26 25 25 25 26 25 27 29 27 24 22 20 18 18 19 19
18 18 17 16 16 16 17 18 19 21 23 25 26 26 27 26 25 24 23 20 19 21 23 24 27 28 27 26 24 22 22 24 25 28 30 29 30 30 29 26 26 27 25 24 25 24 25 27 27 24 24 25 25 26 26 26 26 26 26 27 27 28 28 28 27 27 27 27 26 26 25 25 26 27 26 29 31 31 27 26 24 22 20 19 20
18 17 17 16 15 15 15 16 18 18 20 22 24 25 25 25 24 24 23 20 19 21 23 24 27 29 29 27 25 22 22 23 26 29 30 30 30 30 30 29 28 26 24 23 24 24 24 25 25 24 25 25 25 25 26 25 25 25 26 27 27 28 27 27 27 26 26 25 24 25 26 26 26 26 27 29 32 33 31 29 27 25 23 22 23
17 17 17 17 17 16 16 15 16 16 17 18 20 23 24 24 24 24 23 20 18 21 24 25 26 28 30 29 28 25 23 22 25 29 31 30 31 32 33 32 28 23 21 23 24 23 23 24 25 24 24 24 24 24 25 25 25 25 26 27 27 27 27 26 26 26 26 26 25 25 26 26 24 24 27 28 31 34 35 32 30 28 26 25 25
16 16 17 17 18 18 18 17 16 16 15 15 17 19 22 23 23 23 23 20 18 20 23 25 25 28 30 31 30 29 26 24 26 29 30 30 32 34 36 35 29 22 22 24 24 23 24 25 25 24 25 25 25 25 25 25 25 26 27 27 27 27 26 26 26 26 27 26 26 26 25 25 25 26 27 27 28 34 39 36 31 29 28 27 27
16 16 17 17 17 18 18 18 18 17 16 15 14 16 18 20 21 21 21 20 18 18 22 24 27 30 31 31 31 30 29 27 28 29 29 31 33 34 37 38 34 28 25 24 24 24 25 26 25 26 27 27 26 26 27 26 26 27 28 27 27 27 26 27 26 26 27 27 26 26 25 26 27 27 27 28 28 31 37 37 32 29 30 30 30
17 17 17 17 17 17 17 17 17 17 17 16 14 14 15 16 18 17 18 18 17 16 18 23 28 30 30 31 31 31 31 31 31 30 30 32 33 33 35 36 34 31 28 26 26 27 27 27 27 28 29 27 25 26 27 26 27 28 28 27 27 27 26 27 26 26 27 26 26 26 26 26 27 26 27 29 28 27 31 34 32 31 31 32 33
17 17 18 17 17 17 17 17 17 18 18 17 16 15 14 14 15 15 15 15 15 14 15 20 26 29 29 29 31 32 32 33 32 32 32 33 33 34 34 34 34 33 31 30 30 30 28 28 29 29 28 26 24 25 27 27 27 28 28 28 28 27 27 27 27 27 27 26 26 26 25 25 26 24 25 27 27 27 31 34 34 33 33 33 33
17 18 18 18 19 19 18 18 18 19 19 18 17 17 16 15 15 15 15 14 13 13 13 16 22 27 29 28 29 31 32 32 32 33 35 35 35 35 36 36 35 35 33 33 32 31 30 30 30 30 29 27 26 26 29 29 28 28 29 29 28 27 27 27 27 27 27 26 26 25 25 25 24 24 24 25 26 28 31 33 33 33 33 34 34
16 17 17 18 18 19 19 19 20 20 20 19 18 18 18 18 17 17 17 16 15 14 13 13 15 20 25 27 28 29 30 32 34 35 37 38 38 37 37 37 37 36 35 34 34 34 33 31 31 31 31 30 29 29 31 32 30 29 29 28 27 26 26 27 27 27 27 26 26 26 26 25 25 25 25 26 27 30 32 32 32 31 30 31 33
16 16 17 17 18 18 18 18 19 20 20 20 20 19 19 20 19 19 19 19 18 17 16 15 13 13 16 20 22 24 27 29 33 37 39 39 40 40 40 39 38 39 39 37 36 35 34 32 32 33 32 32 31 32 33 32 30 29 28 26 26 26 26 25 26 26 26 26 27 27 27 26 26 26 27 27 29 31 33 34 34 33 31 31 31
16 17 17 17 18 17 17 17 17 18 19 20 21 20 20 20 21 21 20 20 20 20 20 18 17 15 13 13 14 16 19 23 29 37 41 41 41 42 43 42 41 40 39 38 38 36 34 33 34 34 33 33 33 33 33 31 29 29 29 29 29 28 27 26 26 26 26 26 26 26 26 27 27 27 28 28 30 30 31 32 33 33 32 32 32
17 18 18 18 18 18 18 17 17 17 17 18 19 19 20 20 20 21 21 20 20 21 21 21 20 19 17 15 13 12 12 14 18 27 35 39 42 44 44 44 43 41 39 39 39 37 35 35 35 34 33 33 34 34 34 32 32 32 32 32 31 30 29 28 27 26 26 25 24 24 25 26 26 26 25 26 28 28 29 30 30 30 30 31 30
18 18 19 19 19 20 20 19 19 17 17 16 16 17 18 19 19 20 20 20 20 20 20 21 20 20 19 18 17 16 15 14 13 15 20 28 36 42 45 44 42 41 40 41 41 39 37 37 37 35 34 34 34 35 35 35 35 35 34 33 32 31 31 30 28 26 26 25 24 24 26 27 27 27 27 27 28 29 28 29 29 29 28 28 28
19 19 19 19 19 20 20 21 21 20 19 18 18 17 17 17 18 18 18 19 20 20 19 20 19 19 19 18 18 17 16 16 16 15 14 16 22 31 38 41 41 41 41 40 40 41 40 38 37 37 36 36 35 36 37 37 37 37 36 35 34 33 34 33 31 30 29 28 27 28 30 31 31 31 31 31 31 30 29 29 28 28 27 27 26
19 19 20 20 20 20 20 20 21 21 21 20 20 19 18 17 16 16 16 17 17 18 18 18 18 18 18 17 16 16 14 14 14 15 14 14 13 18 24 29 35 40 41 39 38 39 40 38 37 36 37 36 36 36 38 38 38 37 36 36 36 36 36 35 34 34 34 34 33 32 33 33 32 31 30 29 29 28 27 26 26 26 26 25 24
19 19 20 21 21 21 21 21 21 21 22 21 21 20 20 19 17 16 16 16 16 16 16 17 17 17 16 16 15 15 14 12 11 11 12 12 10 11 14 18 23 30 35 36 37 38 38 38 36 35 35 37 38 38 38 39 38 37 36 37 37 38 38 37 37 38 39 39 38 36 35 33 32 29 28 26 26 26 26 25 25 24 24 23 22
21 21 21 21 22 22 22 22 22 22 22 22 21 21 20 20 20 18 17 16 15 15 15 16 16 16 16 15 14 14 14 13 11 10 10 11 11 10 11 12 14 16 20 25 30 33 36 38 38 36 36 37 39 39 39 39 39 38 37 37 37 38 38 39 39 38 38 37 35 34 32 31 30 29 28 28 27 27 26 25 22 20 19 17 16
23 23 23 23 22 22 22 22 23 23 23 23 23 22 21 21 21 20 19 17 16 15 14 14 15 15 16 15 14 13 13 12 11 10 9 8 10 11 12 12 12 13 13 14 17 21 25 30 33 34 34 36 38 38 38 38 39 39 39 38 38 37 37 37 35 33 31 29 27 26 25 25 26 27 28 28 27 25 22 18 15 12 11 11 11
24 24 24 23 23 23 23 23 23 23 23 23 23 23 23 22 21 20 20 19 18 17 16 14 14 14 15 16 15 14 12 11 10 9 9 8 7 8 9 10 11 13 14 14 14 15 16 18 20 22 24 26 27 28 29 30 30 31 31 31 31 30 30 29 28 27 26 26 26 25 24 23 22 22 22 20 18 15 12 10 8 8 8 10 11
24 24 24 24 23 23 23 23 24 24 24 23 23 23 24 24 24 23 22 21 19 18 17 16 14 13 13 14 15 14 13 11 9 8 7 6 6 6 6 6 7 8 11 13 15 16 16 17 18 19 21 21 22 22 23 23 23 23 23 24 24 24 24 24 24 24 24 24 24 22 20 18 17 15 14 11 9 7 6 5 6 7 9 11 13
22 23 23 23 23 23 23 23 23 23 23 23 23 23 23 24 24 25 24 23 22 20 19 17 16 14 13 12 12 13 13 12 11 9 7 5 4 4 4 4 4 5 6 7 10 12 14 16 18 20 21 23 24 25 25 25 25 24 24 24 23 23 22 21 21 20 19 18 17 15 12 11 9 8 6 5 4 4 4 6 8 10 12 14 16
21 21 22 22 22 22 21 21 22 22 22 23 23 23 24 24 24 24 24 25 24 23 22 19 17 15 14 13 12 11 12 12 11 10 9 6 4 3 2 2 2 2 2 3 4 7 9 11 13 15 17 18 20 21 22 22 22 22 21 20 18 17 16 14 14 13 12 11 9 8 7 6 5 5 4 3 4 5 7 9 11 13 14 16 16
20 20 20 21 21 21 21 20 20 20 21 22 22 23 24 24 24 24 24 24 24 24 24 23 21 18 15 13 13 12 11 11 11 10 9 7 6 5 4 3 3 2 1 1 2 3 4 6 8 9 10 12 13 14 15 15 15 14 14 13 12 12 11 10 10 9 8 8 7 6 5 4 3 3 3 5 7 9 11 12 14 14 15 16 16
20 20 19 19 19 19 20 19 19 19 20 20 21 23 24 24 25 25 24 23 23 23 23 24 23 21 19 16 13 12 12 11 11 10 9 8 6 5 4 3 3 3 3 2 2 3 3 4 5 6 7 7 8 9 10 10 10 11 11 10 10 9 8 8 7 7 6 5 4 3 3 3 4 5 7 8 10 12 13 13 14 14 15 15 16
19 19 19 19 19 18 18 18 19 20 20 18 19 22 24 24 25 25 25 24 23 22 22 23 22 22 20 18 15 13 12 11 11 10 9 9 8 6 4 3 2 2 2 3 3 3 4 4 5 6 6 7 7 8 8 9 9 9 9 9 8 7 6 5 4 4 3 3 2 3 4 6 7 9 10 11 12 12 12 12 13 13 14 14 15
18 18 19 19 19 19 19 19 19 20 20 19 19 20 22 24 25 25 25 25 24 22 21 21 21 21 21 19 17 15 12 11 10 9 9 9 9 8 6 4 3 2 2 2 3 3 4 5 5 6 6 7 7 8 8 8 8 7 6 6 5 4 3 2 2 3 3 4 5 6 8 9 10 10 11 11 11 11 11 11 12 12 13 13 14
18 18 18 19 20 20 19 20 20 20 20 20 19 19 21 23 24 24 25 25 25 23 22 21 21 21 20 20 19 16 13 11 10 9 9 9 9 9 8 7 5 4 3 2 2 2 3 4 4 5 5 5 5 5 5 5 4 4 3 3 3 3 4 4 5 6 6 7 8 9 10 10 10 10 10 10 10 10 10 11 11 12 12 13 13
17 17 18 19 20 20 19 19 18 18 20 20 19 19 20 22 22 23 25 25 24 24 23 22 21 20 20 19 18 17 15 13 11 10 10 9 9 8 8 8 7 7 6 5 4 4 3 3 3 3 3 3 3 3 3 3 3 3 4 5 5 6 7 7 8 9 9 10 10 10 10 10 10 10 10 10 10 10 10 10 11 11 11 11 11
16 17 18 19 21 20 19 18 17 18 19 20 18 17 19 21 21 22 24 24 23 23 23 23 22 20 19 19 18 16 15 14 12 11 10 9 8 7 7 7 8 8 7 6 5 4 4 4 4 4 4 4 4 4 5 5 6 6 7 8 8 9 9 9 10 10 10 10 10 9 9 9 10 10 10 10 10 9 9 9 9 9 8 8 9
15 17 19 21 21 21 19 18 17 17 17 18 17 18 19 20 19 21 23 23 23 22 22 22 22 21 20 19 18 17 15 14 13 12 11 9 8 6 5 6 7 7 7 6 5 4 4 5 5 5 5 5 6 6 7 8 8 9 9 9 9 10 10 10 10 10 10 10 10 10 10 10 10 10 9 9 8 8 7 7 6 6 6 7 7
15 17 20 22 22 21 20 19 18 17 17 18 18 19 19 18 18 20 22 23 23 22 21 20 21 21 20 19 18 17 16 14 13 12 11 10 9 7 6 6 6 6 6 6 5 5 5 5 5 5 6 7 7 8 8 9 9 9 10 10 10 10 9 9 9 10 10 10 10 10 10 10 10 8 7 6 6 5 5 5 5 5 6 6 6
17 19 22 23 22 20 20 19 18 18 18 18 19 19 19 18 18 18 19 20 22 23 21 20 19 19 19 19 19 18 17 15 13 12 12 10 9 8 7 6 6 5 5 5 5 5 5 5 5 6 7 7 8 8 9 9 9 9 9 9 9 9 9 9 10 10 10 10 10 10 10 9 7 6 5 4 3 3 3 3 3 3 4 4 4
18 21 23 22 21 20 19 18 19 19 19 17 17 18 18 18 17 18 18 18 20 22 22 21 20 19 19 18 18 18 18 16 14 12 11 10 9 9 7 6 5 5 5 5 5 5 5 5 6 7 8 8 9 9 9 9 9 9 9 9 9 9 9 9 9 9 9 9 9 9 8 7 6 5 4 3 3 2 2 2 2 2 2 2 3
20 22 22 21 19 18 18 18 18 19 19 18 18 17 17 16 17 18 19 19 20 21 22 21 21 20 19 18 19 19 18 16 15 13 12 10 9 9 8 7 6 5 4 4 5 5 5 6 7 8 8 9 9 9 9 9 9 9 8 9 9 9 9 9 9 8 8 8 8 7 7 6 6 5 4 4 3 3 2 2 2 2 2 3 3
20 21 20 19 18 18 17 17 18 19 19 19 19 19 18 17 17 18 19 20 20 20 21 21 21 20 18 18 18 19 18 16 14 13 12 10 9 9 8 7 6 5 4 4 4 5 6 7 7 8 9 9 9 9 9 9 9 8 8 8 8 8 8 8 8 8 8 8 7 7 6 6 5 5 4 4 3 2 2 2 3 2 2 3 3
20 19 19 18 17 17 17 18 18 18 19 19 20 20 19 18 18 18 18 19 18 18 18 19 20 20 19 17 17 17 17 16 15 15 13 11 9 9 8 7 5 4 4 4 4 5 6 7 8 8 9 9 9 9 9 9 9 8 8 8 8 8 8 8 8 8 8 8 7 7 6 6 5 4 4 3 3 2 2 2 2 2 2 2 3
18 18 18 17 17 18 18 19 19 19 18 19 19 19 19 18 17 17 17 17 17 16 16 17 18 19 19 18 16 16 16 16 16 16 14 13 11 10 9 8 6 4 3 4 4 5 5 6 7 8 8 8 8 8 8 8 9 9 9 8 8 8 9 8 8 8 7 7 7 7 6 6 5 4 4 3 2 2 2 2 2 2 2 3 3
18 18 18 18 18 19 19 20 19 18 17 17 17 18 18 17 17 17 16 16 16 15 15 15 16 17 17 17 16 15 15 15 15 15 15 14 14 13 11 9 7 4 2 3 4 5 6 6 6 7 7 7 8 8 8 9 9 9 8 8 8 8 8 8 8 7 7 7 7 7 6 5 4 4 3 2 2 2 3 3 3 2 3 3 3
18 18 19 19 19 19 19 18 17 17 17 17 17 18 18 18 17 17 16 16 15 15 15 15 15 16 16 15 15 14 14 13 13 14 15 15 14 13 12 11 8 6 4 3 4 5 5 6 6 7 7 7 8 8 8 9 9 9 8 8 8 9 8 8 8 8 7 7 7 6 5 4 4 3 3 2 2 3 4 4 3 2 2 2 2
Wind_Direction
297 301 303 306 309 310 310 307 304 302 301 299 293 288 291 297 300 301 304 298 279 262 256 260 266 272 275 276 279 280 269 255 244 230 230 236 223 207 208 218 222 222 220 218 221 223 222 222 222 221 220 220 220 220 218 219 223 224 225 225 225 224 226 228 226 228 229 226 227 232 235 238 241 244 247 249 249 243 237 233 227 223 221 220 219
299 303 308 313 315 317 319 319 315 311 307 302 296 290 287 289 289 285 287 291 286 274 266 268 277 282 281 279 280 279 269 257 246 233 231 231 219 210 212 218 222 224 223 221 222 225 225 223 221 221 221 220 220 220 219 217 218 222 225 227 227 226 226 228 229 230 231 230 230 233 235 236 239 243 247 250 249 245 239 233 229 227 224 223 223
303 307 311 315 319 320 322 325 326 325 322 316 306 295 288 285 284 280 276 279 283 282 278 277 281 284 283 282 280 274 266 260 250 235 231 228 220 215 217 220 223 224 224 223 223 225 226 224 222 222 222 223 221 220 221 218 215 218 224 226 225 225 225 225 226 228 233 236 236 237 238 238 240 243 246 248 250 248 242 235 231 230 229 228 228
306 307 309 311 313 315 318 321 323 325 325 324 319 308 296 286 281 280 277 274 275 277 278 278 281 282 281 279 277 272 266 261 254 240 233 229 223 219 219 220 222 223 222 222 222 223 223 224 225 225 225 226 223 219 220 219 215 216 221 223 223 224 224 225 225 225 229 234 236 238 240 241 243 246 247 248 250 249 244 237 231 231 232 232 232
306 307 308 309 308 308 311 313 316 319 320 322 322 318 311 298 285 280 279 277 274 273 273 275 278 279 277 274 271 270 264 256 253 246 235 227 223 224 223 221 223 223 220 219 220 221 222 223 225 226 227 228 223 217 216 217 216 218 220 222 224 225 224 226 227 227 231 236 238 239 241 241 243 247 249 250 250 251 249 241 233 231 233 233 235
306 308 308 307 306 305 306 308 310 312 314 316 318 319 318 312 300 287 280 277 274 272 271 272 274 275 275 274 271 267 260 252 250 248 239 230 226 226 225 223 224 223 219 218 220 221 222 224 225 225 227 227 222 217 215 215 218 221 223 225 226 226 226 227 229 232 237 240 239 239 240 241 241 244 248 249 248 250 253 248 240 235 234 235 236
308 309 309 307 305 305 305 306 307 308 309 310 313 316 316 314 309 298 286 278 273 270 270 269 270 272 272 272 269 264 259 253 250 250 246 239 233 230 228 226 225 223 221 221 221 221 222 224 224 225 226 224 220 217 215 216 220 223 225 226 226 227 229 229 231 235 237 239 240 239 238 239 239 240 243 245 245 246 250 252 248 242 239 237 238
309 309 309 308 307 306 305 305 305 305 305 306 308 313 315 314 310 304 294 284 274 270 269 267 268 269 268 267 265 262 259 253 248 247 248 244 238 233 230 229 227 225 224 224 224 223 223 222 223 224 224 222 219 218 217 218 222 224 225 225 225 228 231 230 230 234 234 235 238 238 234 234 238 239 239 239 240 242 245 246 245 244 241 237 237
310 310 310 310 309 307 306 305 304 304 304 305 307 311 314 313 310 304 297 288 278 270 267 265 264 265 268 270 265 258 254 252 248 247 246 245 241 235 230 229 228 225 224 225 227 225 221 220 220 221 221 220 220 222 221 221 224 226 226 226 227 230 233 231 229 231 233 233 234 234 233 235 241 244 242 238 236 239 239 233 231 235 239 239 238
311 311 312 313 312 312 310 309 307 306 306 306 308 311 313 313 310 304 297 288 280 272 265 261 260 260 265 271 267 255 250 250 249 246 242 239 239 237 232 231 230 227 225 227 229 227 223 221 222 222 222 221 222 226 226 225 226 227 226 226 228 232 235 235 233 230 231 233 234 233 235 238 242 246 246 239 234 234 235 232 228 233 241 244 244
311 312 313 314 315 316 315 313 311 309 308 308 309 311 313 312 310 307 300 289 280 273 265 258 257 258 262 269 270 261 253 250 245 241 236 232 233 236 236 233 229 225 226 226 226 226 224 223 223 223 225 223 223 226 228 228 228 228 227 228 230 233 236 238 237 232 230 235 238 236 237 240 241 243 243 239 234 232 232 233 232 235 243 245 246
310 312 314 314 316 317 316 315 313 311 309 309 309 310 311 312 310 308 305 294 278 270 264 257 254 254 257 263 267 263 255 249 239 233 232 231 231 233 236 235 229 225 225 226 227 227 229 229 224 220 222 224 225 227 229 229 229 229 229 231 233 235 237 239 239 236 234 236 238 238 239 240 239 239 237 234 233 231 229 233 234 233 240 244 245
308 310 313 314 316 316 316 316 314 312 311 309 309 308 308 309 309 308 308 301 282 268 261 256 251 250 251 255 259 259 254 246 235 228 229 231 232 232 234 235 232 229 227 229 231 229 229 234 231 224 223 224 225 227 228 229 230 230 230 232 234 235 236 239 241 241 240 238 236 238 240 239 237 238 235 231 231 230 226 229 233 233 236 238 238
309 310 312 313 314 314 314 314 313 314 312 309 307 306 305 305 306 306 308 304 288 270 259 253 249 248 249 251 253 255 254 247 239 234 231 230 231 233 235 235 234 231 228 230 233 231 227 230 231 229 227 227 227 228 228 228 229 230 230 230 231 232 234 236 238 241 244 243 240 240 241 240 239 238 236 233 230 228 225 226 230 232 234 235 235
313 312 312 312 311 310 309 310 310 313 313 310 306 304 303 303 303 304 306 304 291 273 259 252 248 246 246 248 249 251 252 248 242 239 235 232 230 232 234 237 237 234 232 235 238 238 235 233 230 228 228 228 229 228 229 230 230 230 231 230 230 232 234 235 236 238 241 243 244 244 244 247 245 241 242 240 232 226 224 225 229 232 236 239 240
317 316 314 313 310 309 308 308 308 310 312 312 308 304 302 303 302 302 304 305 296 276 260 250 247 248 248 248 249 250 251 247 241 238 236 234 234 234 234 236 238 233 231 236 240 241 240 237 232 228 227 227 226 225 226 228 229 231 232 232 232 232 233 234 235 236 240 243 245 246 246 249 248 245 246 247 241 232 224 222 226 231 236 241 242
324 322 320 317 314 312 311 310 310 309 309 310 308 305 303 304 306 306 305 306 302 284 263 247 243 247 249 248 248 250 249 247 242 238 234 233 236 239 238 236 235 230 226 232 239 241 240 238 234 230 229 228 226 224 224 225 229 232 233 233 233 233 233 235 236 237 240 243 245 246 246 245 247 248 247 247 251 243 227 220 224 230 233 237 240
330 327 324 323 322 321 320 319 319 317 313 310 307 306 305 306 311 313 310 310 311 299 274 250 241 246 249 248 247 248 247 244 240 238 236 234 236 239 240 237 232 227 225 230 238 240 240 239 235 230 230 231 227 223 223 224 228 232 233 233 233 234 235 236 238 239 241 243 245 246 245 243 245 249 249 248 251 244 229 225 227 228 231 236 239
335 332 331 331 331 332 332 331 331 330 326 320 313 310 309 310 314 319 319 318 319 314 289 261 248 248 252 251 250 249 249 246 240 237 236 237 236 236 236 234 231 228 228 232 236 238 237 236 235 232 231 232 229 223 221 224 228 231 233 233 234 235 236 237 239 241 242 244 246 246 246 246 245 246 249 250 247 238 232 231 230 228 231 237 241
341 339 339 339 339 339 339 338 338 338 336 333 328 322 320 318 318 321 325 327 327 326 311 282 263 259 259 258 255 252 250 248 244 240 238 237 237 234 232 231 232 233 233 233 233 235 236 235 234 232 230 230 227 222 219 222 225 229 231 233 234 236 239 240 241 242 244 245 247 248 248 249 249 247 246 246 243 237 236 238 238 236 235 238 242
343 340 340 341 342 341 341 340 339 340 340 340 339 336 331 329 326 325 327 331 334 334 329 316 293 278 272 270 266 260 254 249 245 242 240 238 237 234 230 230 232 234 235 233 230 231 233 233 233 232 229 227 226 225 224 223 224 228 232 234 237 239 241 243 244 245 246 246 247 248 249 250 251 250 248 244 240 239 241 244 248 249 247 245 248
342 340 339 338 340 341 340 340 338 338 340 340 341 342 340 339 337 334 332 333 337 339 337 334 326 310 294 284 278 270 262 255 246 240 238 238 237 234 230 229 230 232 233 233 231 230 232 233 233 231 228 225 225 226 227 225 224 228 233 234 236 238 240 244 248 248 247 247 247 248 248 247 246 246 245 243 240 240 241 243 246 250 252 254 256
346 344 340 337 337 338 338 339 339 338 338 338 339 341 341 340 340 340 338 337 337 340 341 340 337 332 325 314 301 285 273 265 252 241 236 234 235 235 233 231 230 231 232 231 231 232 233 232 230 228 227 226 225 227 229 228 226 228 229 229 230 233 236 240 246 250 250 251 251 251 249 247 244 242 242 242 241 241 243 245 247 249 252 254 257
354 350 346 343 341 338 337 338 340 340 338 336 336 337 338 338 338 338 339 340 340 340 340 342 344 342 337 335 332 324 309 292 270 253 242 233 230 232 233 232 232 231 230 230 230 230 231 232 229 227 227 227 227 227 228 227 226 227 229 229 230 233 237 241 246 250 252 252 252 251 248 244 240 237 236 237 239 240 242 245 247 249 251 253 254
359 356 354 351 349 346 343 341 340 339 338 337 336 336 336 337 338 337 337 338 340 340 339 340 344 346 345 342 338 335 333 330 317 290 264 245 235 232 232 233 233 231 229 230 230 228 228 231 230 228 227 228 228 228 227 225 224 225 229 231 233 235 238 240 242 243 245 245 244 242 240 239 238 237 237 239 242 243 245 247 249 250 252 253 255
3 1 358 356 355 352 349 346 343 342 340 339 339 339 339 339 339 339 339 338 338 340 340 339 341 344 347 347 342 336 331 329 329 325 307 278 255 243 236 233 232 231 229 230 231 228 225 227 230 229 228 227 226 225 225 224 223 224 226 229 233 236 238 238 238 237 237 238 237 235 236 238 239 238 238 239 241 242 244 246 248 251 252 254 256
7 6 3 1 359 357 354 352 349 348 347 345 343 342 342 342 340 340 341 341 340 339 338 338 339 340 344 347 346 341 334 324 317 318 317 309 288 265 248 235 229 228 229 230 232 230 227 226 227 227 226 225 223 222 224 225 225 224 225 228 232 236 238 237 236 235 234 235 235 233 232 233 232 231 232 234 237 241 244 246 248 250 251 252 253
12 11 8 6 4 2 360 358 355 353 351 350 348 346 344 344 343 343 342 342 341 340 339 339 338 338 339 342 345 346 344 334 317 305 301 300 295 282 269 254 239 231 229 229 230 230 230 230 230 227 224 222 221 220 221 223 224 225 227 230 234 238 240 240 238 237 237 237 233 226 223 224 227 230 234 238 242 245 247 247 246 245 245 246 247
17 15 13 12 10 7 5 3 1 359 356 353 351 350 349 349 348 347 345 343 342 342 342 341 339 338 337 338 340 342 343 343 338 322 301 288 280 271 266 266 259 247 239 235 233 232 233 235 237 235 230 225 222 219 218 219 222 226 229 231 235 237 238 237 234 233 232 230 224 218 217 222 228 234 239 243 245 245 242 240 239 239 242 245 249
21 18 17 16 15 13 11 9 7 5 2 359 356 354 354 355 355 352 349 346 344 344 343 341 340 340 339 336 335 334 337 341 345 343 332 309 289 274 264 261 260 256 253 248 241 235 232 232 232 229 224 221 220 219 217 217 219 223 226 227 228 229 228 227 226 224 224 224 225 227 230 234 238 242 245 246 245 242 238 235 235 237 243 250 256
23 21 21 20 18 17 16 14 12 10 8 7 5 2 359 358 358 358 357 355 351 346 344 342 341 341 340 338 335 333 333 336 340 343 344 339 326 307 286 272 262 255 250 248 246 243 237 232 229 224 220 218 217 217 218 217 217 218 218 218 219 219 220 223 225 227 230 233 236 239 240 241 242 242 240 239 236 234 233 230 232 240 249 258 264
24 24 23 22 21 21 19 17 16 14 11 9 9 9 8 5 3 1 1 2 0 356 350 346 342 339 338 338 337 333 329 326 326 330 339 344 344 340 328 306 286 270 256 248 246 246 243 240 237 234 231 229 228 228 228 228 227 226 224 224 224 225 228 230 232 234 235 235 235 235 235 235 233 228 224 221 216 214 218 226 239 251 259 265 270
23 24 23 23 23 22 21 18 16 14 12 10 8 8 9 10 8 5 3 2 3 3 0 355 348 342 338 333 332 331 329 324 318 313 312 319 333 341 342 330 309 289 268 252 245 242 240 238 235 234 233 233 233 233 233 233 234 235 234 234 233 232 232 231 230 228 225 223 221 219 215 212 206 198 193 188 188 203 228 245 255 261 264 267 269
20 21 21 22 23 22 21 19 15 12 10 8 6 5 5 5 6 6 5 2 2 3 3 3 359 353 345 335 328 325 323 323 323 317 308 300 294 291 296 306 307 297 272 248 234 228 227 226 224 225 227 227 228 228 228 227 228 228 226 224 222 219 215 210 206 202 197 192 185 177 168 162 158 160 169 186 217 243 252 255 259 261 263 266 269
16 16 16 18 19 18 17 17 14 9 6 5 3 2 1 360 360 1 2 2 1 0 1 3 3 1 355 345 334 326 319 315 316 317 316 309 297 282 269 258 256 253 234 208 195 197 201 204 206 207 209 211 212 211 209 207 205 203 200 195 190 184 177 170 165 159 153 147 140 136 139 148 165 190 219 237 246 252 254 256 259 261 264 268 272
12 12 12 14 14 13 11 11 8 5 5 6 1 355 353 354 354 354 356 358 360 360 360 1 2 1 359 354 345 336 327 318 311 307 307 307 305 297 283 260 241 236 228 210 194 182 175 174 176 178 178 180 182 183 181 178 175 171 167 162 155 147 139 132 128 124 123 123 126 139 169 206 227 237 244 247 250 252 255 258 261 264 269 273 277
6 7 8 9 10 9 7 4 1 0 5 8 359 349 348 350 350 349 350 351 354 356 358 358 359 359 358 358 355 348 339 329 319 309 301 297 296 295 289 273 239 207 196 189 184 178 169 163 160 158 156 154 153 153 152 150 147 141 136 131 126 122 118 116 115 118 128 147 179 207 223 234 239 243 246 248 251 254 257 261 266 269 273 276 280
0 2 3 4 5 5 3 0 359 360 4 6 358 349 349 351 349 347 347 346 347 350 352 353 355 355 355 357 358 356 350 341 330 321 310 300 293 288 283 278 267 237 196 179 174 169 164 160 156 152 149 146 140 136 133 129 125 122 120 119 121 126 134 146 160 180 197 209 220 228 235 239 242 245 248 252 256 260 263 266 270 273 277 280 283
355 357 358 359 1 360 358 359 360 357 358 2 360 354 353 354 351 348 348 346 344 344 346 348 350 352 352 354 356 355 353 348 340 330 321 309 296 286 279 275 275 274 267 248 225 203 184 173 163 155 150 144 137 132 130 127 128 131 138 153 171 184 192 201 208 213 218 223 227 233 238 242 247 251 254 257 261 263 266 270 273 276 279 280 281
351 353 355 357 357 356 354 357 357 351 351 359 3 358 352 352 353 352 351 349 346 344 344 345 348 349 349 349 351 352 352 351 345 337 328 317 304 289 278 275 278 281 280 272 261 249 231 215 201 189 180 172 165 164 167 172 180 188 196 202 206 208 210 213 216 219 223 227 231 236 241 246 250 254 257 259 262 264 267 271 273 274 276 279 284
348 350 352 354 355 354 352 353 352 349 350 356 359 354 350 351 354 353 353 352 351 348 345 345 348 350 350 349 348 350 352 352 348 343 337 327 315 296 278 274 278 283 282 277 266 253 242 234 229 224 218 213 207 205 203 202 202 203 204 206 210 213 216 219 221 225 228 231 235 239 244 248 251 253 255 256 258 261 263 264 266 271 280 292 303
344 346 349 350 351 351 351 350 349 349 349 347 348 350 352 353 352 352 353 355 354 352 349 349 349 350 352 352 350 349 352 353 349 344 340 333 324 309 284 272 274 277 277 274 266 256 250 243 235 229 224 217 211 207 203 201 201 202 205 208 213 217 220 223 225 228 231 235 239 242 244 245 245 245 245 247 250 254 259 267 278 293 307 319 326
339 341 344 345 346 347 348 348 347 346 344 343 346 351 355 354 352 352 353 354 355 355 353 352 352 351 351 353 354 353 354 355 351 345 339 333 325 315 300 286 279 275 270 267 262 257 253 244 233 223 217 211 208 205 203 203 204 207 210 214 217 220 223 225 228 232 236 239 240 240 239 237 234 233 234 240 248 258 274 293 312 323 327 331 334
334 337 339 341 343 344 344 346 345 343 343 347 350 350 352 353 353 353 353 353 354 356 355 353 353 353 352 354 357 356 354 354 352 346 339 332 323 314 305 296 288 279 269 260 252 247 244 240 230 222 216 212 209 208 208 210 214 217 219 222 223 225 228 231 234 237 238 236 234 233 231 230 230 230 231 238 249 267 289 307 321 327 325 326 326
332 334 336 338 341 342 342 343 342 339 342 349 351 350 351 350 347 348 351 353 354 356 355 352 351 352 352 354 356 355 353 354 355 352 344 336 325 314 305 296 288 280 272 262 250 239 231 226 222 219 216 213 211 212 215 219 223 226 227 230 232 234 237 239 240 238 235 231 227 226 227 227 228 224 217 215 220 227 242 268 288 300 306 309 310
330 333 335 337 339 341 341 343 341 339 341 347 350 349 350 348 342 341 347 352 356 358 356 352 349 349 350 352 353 352 351 354 357 356 351 342 331 321 312 299 284 272 266 263 257 247 235 225 220 217 215 212 213 217 221 226 230 233 236 239 242 245 245 242 238 233 228 226 224 223 223 222 219 211 198 191 195 202 211 231 255 273 283 288 293
332 334 336 338 341 342 342 342 342 341 342 344 345 346 346 346 343 342 344 349 354 356 353 350 349 349 348 348 348 347 349 355 360 1 357 347 334 327 321 308 288 268 254 250 251 248 242 234 227 221 219 218 219 223 227 231 235 240 244 248 250 248 243 236 230 225 222 220 220 219 219 216 208 196 186 185 196 213 228 243 260 274 285 289 292
335 337 339 341 342 342 342 341 342 342 342 341 341 342 342 343 342 341 342 344 347 349 349 348 348 346 345 345 345 345 348 354 360 2 359 354 346 336 328 320 306 276 247 237 237 238 238 237 233 229 227 227 229 231 234 239 243 249 252 252 246 238 233 229 225 222 220 217 214 211 209 206 197 190 190 194 204 220 241 261 276 292 306 305 302
336 339 341 342 341 340 339 338 338 339 340 340 339 339 340 340 339 339 339 339 339 342 345 346 345 344 344 344 345 346 349 354 357 356 355 358 360 354 341 330 322 301 254 235 237 240 239 238 237 236 234 235 238 240 243 248 254 255 251 244 235 229 226 225 223 221 219 213 207 205 204 200 194 192 196 199 202 220 250 271 286 300 308 306 305
337 338 339 339 337 336 335 335 336 337 340 342 341 340 339 339 337 335 334 333 333 335 338 338 339 341 342 342 343 346 350 355 356 355 353 356 0 360 353 343 332 317 267 221 224 236 241 240 241 242 242 243 246 250 254 259 260 254 245 235 228 226 224 221 219 217 213 207 203 204 205 202 197 197 202 207 210 227 250 264 268 274 285 290 295
335 336 335 334 334 334 334 335 336 337 339 341 340 338 336 336 333 330 329 327 327 328 329 329 331 335 337 338 340 344 347 351 355 357 356 355 354 354 354 352 343 324 290 244 228 234 240 241 240 243 247 249 253 257 259 258 255 247 238 232 228 225 221 216 212 210 208 206 207 210 211 208 205 206 218 230 234 237 245 252 252 253 264 277 290
Height
3128 3127 3127 3126 3125 3125 3124 3123 3122 3121 3120 3119 3118 3117 3115 3114 3113 3112 3111 3110 3110 3109 3109 3110 3110 3110 3109 3108 3107 3106 3105 3105 3105 3105 3106 3107 3109 3110 3113 3115 3116 3118 3119 3120 3122 3123 3126 3128 3129 3131 3132 3134 3135 3137 3139 3141 3143 3145 3146 3147 3148 3148 3149 3151 3152 3153 3154 3156 3157 3158 3158 3158 3159 3159 3159 3160 3160 3160 3160 3160 3161 3161 3162 3162 3163
3126 3125 3125 3124 3123 3122 3121 3120 3119 3118 3117 3116 3115 3114 3113 3112 3111 3110 3109 3109 3108 3108 3108 3108 3108 3108 3107 3106 3104 3103 3102 3102 3102 3103 3103 3104 3106 3108 3110 3112 3114 3116 3117 3118 3119 3122 3124 3126 3127 3129 3130 3131 3132 3134 3137 3139 3140 3142 3144 3144 3145 3146 3147 3149 3150 3151 3152 3153 3154 3155 3156 3157 3157 3157 3158 3158 3158 3158 3158 3158 3159 3159 3160 3160 3161
3124 3123 3122 3122 3121 3120 3120 3119 3117 3116 3115 3114 3113 3111 3111 3110 3109 3108 3107 3106 3106 3106 3106 3105 3105 3105 3105 3104 3102 3101 3100 3100 3100 3101 3101 3102 3104 3106 3108 3110 3111 3113 3115 3116 3118 3120 3122 3124 3125 3126 3126 3128 3130 3132 3134 3136 3137 3139 3141 3142 3143 3144 3145 3147 3148 3149 3150 3150 3152 3153 3153 3154 3155 3155 3156 3156 3156 3156 3156 3156 3157 3157 3158 3158 3159
3122 3121 3120 3120 3119 3118 3118 3117 3116 3115 3113 3112 3111 3109 3108 3107 3106 3105 3105 3104 3103 3103 3103 3103 3102 3102 3102 3101 3100 3098 3098 3098 3098 3099 3100 3101 3102 3104 3105 3107 3109 3111 3112 3113 3115 3117 3119 3121 3123 3123 3124 3125 3127 3129 3131 3133 3134 3136 3138 3139 3140 3141 3143 3144 3145 3147 3147 3148 3149 3150 3151 3152 3153 3153 3154 3154 3154 3155 3154 3154 3155 3155 3156 3157 3157
3120 3119 3118 3117 3117 3116 3116 3115 3114 3113 3111 3110 3109 3107 3106 3105 3104 3103 3102 3101 3101 3100 3100 3100 3099 3099 3099 3097 3096 3095 3095 3096 3096 3097 3098 3099 3100 3101 3103 3104 3105 3108 3110 3111 3112 3114 3116 3119 3120 3121 3122 3123 3124 3126 3128 3129 3130 3132 3135 3136 3137 3139 3140 3141 3142 3144 3145 3145 3146 3147 3148 3149 3150 3151 3151 3152 3153 3153 3153 3153 3153 3153 3154 3155 3156
3118 3117 3116 3115 3114 3114 3113 3112 3111 3110 3109 3108 3107 3105 3104 3102 3101 3100 3099 3099 3098 3098 3097 3097 3096 3096 3095 3093 3092 3092 3093 3093 3094 3095 3097 3098 3098 3099 3100 3101 3103 3105 3106 3107 3109 3111 3114 3115 3116 3118 3119 3120 3121 3122 3123 3124 3127 3129 3131 3133 3135 3136 3137 3138 3140 3140 3141 3143 3144 3144 3145 3146 3147 3148 3149 3150 3151 3151 3151 3151 3151 3152 3152 3153 3154
3116 3115 3114 3113 3113 3112 3111 3110 3109 3108 3107 3105 3104 3103 3101 3100 3099 3097 3097 3096 3096 3095 3095 3094 3094 3094 3092 3090 3089 3090 3090 3090 3091 3093 3094 3096 3096 3096 3098 3099 3100 3102 3103 3104 3106 3109 3111 3112 3113 3115 3116 3117 3119 3119 3119 3120 3123 3125 3128 3130 3132 3133 3134 3136 3137 3137 3138 3140 3140 3141 3142 3143 3144 3145 3146 3147 3148 3149 3149 3149 3150 3150 3151 3151 3152
3113 3113 3112 3111 3110 3109 3108 3107 3106 3105 3104 3103 3101 3100 3098 3097 3095 3094 3094 3093 3093 3092 3092 3092 3091 3091 3089 3087 3086 3087 3087 3087 3088 3090 3092 3093 3094 3094 3095 3097 3098 3099 3100 3101 3103 3105 3107 3108 3110 3112 3113 3114 3115 3115 3115 3118 3120 3123 3125 3127 3129 3130 3131 3132 3133 3133 3134 3135 3136 3138 3139 3140 3141 3142 3143 3144 3146 3146 3147 3147 3148 3148 3149 3149 3149
3111 3110 3109 3109 3108 3107 3106 3105 3104 3103 3101 3100 3098 3097 3096 3094 3092 3091 3090 3090 3089 3089 3089 3089 3088 3088 3086 3084 3084 3084 3084 3084 3085 3086 3088 3090 3091 3092 3093 3094 3095 3097 3098 3099 3100 3102 3103 3104 3106 3109 3109 3109 3110 3112 3113 3116 3118 3120 3122 3124 3126 3127 3128 3128 3128 3129 3130 3131 3132 3134 3135 3136 3138 3139 3140 3141 3143 3144 3144 3145 3145 3146 3146 3147 3147
3109 3108 3107 3106 3105 3104 3103 3102 3101 3100 3099 3097 3096 3094 3093 3091 3090 3088 3087 3086 3086 3086 3086 3086 3085 3084 3083 3083 3082 3082 3081 3081 3082 3083 3086 3087 3088 3089 3090 3091 3093 3094 3095 3096 3097 3099 3100 3101 3102 3104 3104 3105 3108 3110 3111 3114 3116 3118 3120 3121 3123 3124 3124 3125 3126 3126 3127 3128 3129 3130 3131 3133 3134 3136 3137 3139 3140 3141 3142 3142 3143 3144 3144 3144 3145
3107 3106 3105 3104 3103 3102 3101 3100 3099 3097 3096 3095 3093 3091 3090 3088 3087 3086 3084 3083 3083 3083 3083 3083 3082 3082 3081 3081 3080 3079 3079 3078 3079 3081 3082 3084 3085 3086 3087 3089 3090 3092 3093 3094 3095 3097 3097 3098 3099 3099 3101 3103 3106 3108 3110 3112 3113 3115 3117 3118 3119 3120 3121 3123 3124 3124 3125 3126 3125 3126 3127 3128 3130 3132 3134 3136 3137 3138 3139 3140 3141 3142 3142 3142 3142
3105 3104 3103 3102 3101 3100 3098 3097 3096 3095 3094 3092 3091 3089 3087 3086 3084 3083 3081 3080 3080 3079 3079 3079 3079 3078 3078 3078 3077 3077 3077 3076 3077 3078 3079 3080 3082 3084 3085 3087 3088 3089 3089 3090 3092 3094 3094 3094 3095 3097 3099 3102 3104 3105 3107 3108 3110 3112 3113 3115 3116 3117 3119 3120 3121 3122 3122 3122 3122 3123 3124 3125 3126 3128 3130 3132 3133 3135 3136 3137 3138 3139 3139 3140 3141
3104 3103 3102 3100 3099 3098 3096 3095 3094 3093 3091 3090 3088 3086 3084 3083 3081 3080 3078 3077 3076 3076 3075 3075 3075 3075 3074 3075 3075 3075 3075 3075 3075 3076 3077 3078 3080 3081 3082 3084 3085 3086 3087 3087 3088 3090 3091 3091 3091 3094 3097 3099 3101 3102 3103 3105 3107 3109 3110 3112 3113 3115 3116 3117 3118 3119 3118 3118 3119 3120 3121 3121 3122 3123 3125 3128 3129 3131 3132 3133 3134 3136 3136 3137 3138
3102 3101 3100 3098 3097 3096 3094 3093 3092 3090 3089 3087 3085 3084 3082 3080 3078 3076 3075 3074 3073 3072 3072 3072 3072 3071 3072 3072 3072 3072 3072 3073 3074 3075 3075 3076 3077 3078 3079 3080 3082 3083 3084 3084 3085 3086 3087 3088 3088 3091 3094 3096 3098 3099 3101 3102 3104 3106 3108 3109 3110 3111 3113 3113 3114 3115 3115 3116 3117 3117 3117 3118 3119 3121 3122 3124 3125 3127 3129 3130 3131 3132 3133 3133 3134
3100 3099 3098 3096 3095 3094 3092 3091 3090 3088 3087 3085 3083 3081 3079 3077 3075 3074 3072 3071 3070 3069 3068 3068 3068 3068 3069 3069 3070 3070 3070 3070 3071 3072 3073 3074 3074 3075 3076 3077 3079 3080 3080 3081 3081 3082 3084 3085 3086 3088 3091 3093 3095 3097 3098 3100 3102 3103 3105 3106 3107 3108 3109 3110 3111 3112 3112 3113 3114 3114 3114 3115 3116 3118 3119 3120 3122 3124 3125 3126 3127 3128 3129 3129 3130
3098 3097 3096 3094 3093 3091 3090 3089 3087 3086 3085 3083 3081 3079 3077 3075 3073 3071 3069 3068 3067 3066 3065 3064 3065 3065 3065 3065 3066 3066 3067 3067 3067 3068 3069 3071 3071 3072 3073 3073 3074 3076 3078 3079 3080 3081 3082 3083 3084 3086 3088 3090 3092 3093 3095 3097 3098 3100 3101 3102 3104 3105 3106 3107 3108 3109 3109 3110 3111 3111 3112 3113 3113 3114 3115 3116 3118 3119 3120 3122 3123 3125 3126 3126 3127
3096 3095 3093 3092 3091 3089 3088 3086 3085 3083 3082 3081 3079 3078 3075 3073 3071 3069 3067 3065 3063 3062 3061 3061 3062 3062 3062 3062 3062 3063 3064 3064 3064 3064 3066 3067 3067 3069 3070 3070 3070 3072 3075 3077 3078 3079 3081 3082 3083 3084 3085 3087 3089 3091 3092 3094 3095 3097 3098 3099 3101 3102 3103 3104 3105 3106 3107 3107 3108 3109 3110 3110 3111 3112 3113 3114 3114 3115 3116 3118 3119 3121 3123 3123 3123
3094 3093 3091 3090 3088 3087 3085 3084 3082 3081 3080 3078 3077 3076 3074 3072 3069 3067 3065 3062 3060 3059 3058 3058 3058 3058 3058 3058 3058 3059 3060 3060 3061 3062 3062 3063 3064 3066 3066 3066 3067 3069 3072 3075 3076 3077 3079 3080 3081 3082 3083 3086 3088 3089 3090 3091 3092 3093 3095 3096 3097 3099 3100 3101 3102 3103 3103 3104 3105 3106 3107 3108 3108 3109 3110 3110 3111 3112 3113 3114 3115 3117 3119 3118 3119
3093 3091 3089 3088 3086 3085 3083 3082 3080 3079 3077 3076 3075 3073 3072 3070 3068 3065 3063 3061 3058 3057 3055 3055 3055 3054 3055 3055 3055 3056 3056 3057 3058 3059 3059 3060 3061 3062 3063 3064 3065 3067 3069 3071 3073 3074 3076 3078 3078 3079 3081 3083 3085 3086 3087 3088 3089 3090 3091 3093 3094 3095 3097 3098 3099 3100 3100 3101 3102 3103 3104 3105 3106 3107 3107 3107 3108 3109 3109 3110 3111 3113 3114 3114 3115
3091 3090 3088 3086 3085 3083 3082 3081 3079 3077 3075 3074 3072 3071 3069 3068 3066 3064 3062 3060 3057 3055 3054 3053 3052 3051 3051 3051 3052 3053 3053 3053 3054 3056 3056 3057 3058 3059 3060 3061 3062 3064 3066 3067 3069 3071 3073 3074 3075 3076 3078 3079 3081 3082 3083 3083 3084 3086 3087 3089 3090 3092 3093 3094 3095 3096 3097 3098 3099 3100 3101 3102 3103 3104 3104 3105 3106 3106 3106 3107 3108 3109 3109 3110 3111
3091 3089 3087 3086 3084 3083 3081 3079 3077 3076 3074 3072 3071 3069 3067 3066 3064 3062 3060 3058 3056 3054 3052 3051 3049 3048 3048 3047 3048 3048 3049 3049 3050 3051 3052 3053 3054 3055 3056 3058 3059 3061 3063 3064 3065 3066 3068 3070 3071 3073 3074 3075 3077 3077 3077 3078 3080 3082 3084 3085 3087 3089 3089 3091 3092 3093 3094 3094 3095 3096 3097 3098 3099 3100 3101 3102 3103 3104 3104 3105 3105 3105 3106 3108 3107
3090 3088 3087 3085 3084 3082 3080 3079 3077 3075 3073 3071 3069 3068 3066 3064 3062 3061 3059 3057 3055 3053 3051 3049 3048 3046 3045 3044 3043 3043 3044 3044 3045 3046 3047 3048 3049 3051 3052 3054 3055 3057 3058 3060 3060 3062 3064 3066 3068 3069 3070 3071 3073 3073 3073 3074 3076 3078 3080 3082 3084 3084 3085 3086 3087 3088 3089 3090 3091 3092 3093 3094 3095 3096 3097 3098 3099 3100 3100 3101 3102 3102 3103 3104 3103
3090 3088 3086 3084 3083 3081 3080 3078 3076 3074 3072 3070 3068 3066 3065 3063 3061 3060 3058 3056 3054 3052 3050 3048 3046 3045 3043 3042 3040 3039 3039 3039 3040 3041 3042 3043 3045 3046 3047 3049 3050 3051 3054 3056 3057 3059 3061 3063 3064 3065 3066 3067 3069 3070 3071 3072 3073 3075 3076 3078 3079 3079 3080 3081 3083 3084 3085 3086 3087 3088 3089 3090 3091 3092 3093 3094 3094 3095 3096 3097 3098 3099 3099 3100 3100
3089 3088 3086 3084 3082 3080 3079 3077 3076 3074 3072 3069 3067 3065 3063 3062 3060 3059 3057 3055 3053 3051 3049 3047 3046 3044 3042 3040 3039 3037 3036 3036 3036 3036 3037 3038 3039 3041 3042 3044 3045 3047 3049 3051 3053 3055 3058 3058 3059 3060 3062 3064 3065 3066 3067 3068 3069 3070 3071 3073 3074 3075 3076 3077 3078 3080 3081 3082 3083 3084 3085 3086 3087 3088 3089 3090 3091 3091 3092 3093 3094 3095 3095 3096 3096
3089 3087 3085 3083 3081 3079 3077 3076 3074 3073 3071 3069 3067 3065 3063 3061 3059 3058 3056 3054 3052 3050 3048 3046 3045 3043 3041 3039 3038 3036 3035 3034 3033 3033 3033 3034 3035 3036 3038 3039 3040 3042 3044 3046 3048 3050 3052 3053 3054 3056 3058 3060 3061 3063 3063 3064 3065 3066 3067 3069 3070 3072 3073 3073 3074 3076 3077 3078 3079 3080 3081 3083 3084 3085 3085 3086 3087 3087 3088 3089 3090 3091 3091 3092 3092
3089 3087 3085 3083 3081 3079 3077 3075 3073 3071 3070 3068 3067 3065 3063 3061 3059 3057 3055 3053 3052 3050 3048 3046 3044 3042 3041 3039 3037 3036 3034 3033 3032 3032 3031 3031 3032 3033 3034 3035 3036 3037 3040 3042 3043 3045 3047 3049 3051 3052 3054 3055 3057 3058 3059 3059 3060 3061 3063 3064 3066 3067 3068 3069 3070 3071 3072 3073 3074 3076 3077 3078 3080 3080 3081 3081 3082 3083 3084 3085 3086 3086 3087 3087 3088
3089 3086 3085 3083 3081 3079 3077 3075 3073 3071 3069 3067 3066 3064 3062 3061 3059 3057 3055 3053 3051 3050 3048 3046 3044 3042 3041 3039 3037 3036 3035 3034 3033 3032 3031 3031 3031 3031 3032 3033 3032 3033 3035 3037 3039 3040 3042 3045 3046 3048 3049 3051 3053 3054 3055 3056 3056 3057 3058 3060 3061 3062 3063 3064 3065 3066 3067 3068 3069 3070 3072 3073 3074 3075 3076 3077 3078 3079 3080 3080 3081 3082 3082 3083 3083
3088 3086 3084 3082 3081 3079 3077 3075 3073 3070 3068 3067 3065 3063 3062 3060 3059 3057 3055 3053 3052 3050 3048 3046 3044 3042 3041 3039 3038 3036 3035 3034 3033 3032 3032 3031 3031 3031 3032 3032 3031 3031 3032 3034 3035 3037 3038 3040 3042 3043 3045 3046 3048 3049 3050 3051 3052 3053 3054 3056 3057 3058 3059 3060 3061 3061 3062 3063 3063 3064 3066 3068 3069 3070 3071 3072 3073 3074 3075 3076 3077 3077 3078 3078 3079
3088 3086 3084 3082 3081 3079 3077 3075 3073 3070 3068 3066 3065 3063 3061 3059 3058 3056 3055 3053 3052 3050 3048 3046 3044 3043 3041 3039 3038 3037 3035 3034 3033 3032 3032 3031 3031 3031 3031 3031 3031 3031 3031 3032 3033 3034 3035 3037 3039 3040 3042 3043 3043 3044 3045 3046 3048 3049 3050 3051 3052 3053 3055 3056 3057 3057 3058 3059 3059 3060 3061 3063 3064 3066 3067 3068 3069 3070 3071 3071 3072 3073 3074 3074 3076
3088 3086 3085 3083 3081 3079 3077 3075 3073 3071 3069 3067 3065 3063 3061 3060 3058 3056 3054 3053 3051 3050 3048 3047 3045 3043 3041 3040 3038 3037 3035 3034 3033 3032 3031 3031 3030 3030 3030 3030 3030 3031 3031 3031 3031 3032 3033 3034 3035 3037 3038 3039 3040 3041 3041 3042 3043 3044 3045 3046 3048 3049 3050 3051 3053 3054 3055 3056 3057 3058 3059 3060 3061 3063 3064 3064 3065 3066 3067 3068 3069 3070 3071 3072 3073
3089 3087 3085 3083 3081 3079 3077 3076 3074 3072 3070 3068 3066 3063 3061 3060 3058 3056 3055 3053 3051 3050 3048 3047 3045 3044 3042 3040 3039 3037 3036 3035 3033 3032 3031 3031 3030 3029 3029 3029 3029 3029 3030 3030 3031 3031 3032 3032 3033 3035 3036 3037 3038 3038 3039 3040 3041 3042 3042 3043 3044 3045 3047 3048 3049 3051 3052 3053 3055 3056 3057 3058 3059 3060 3061 3061 3062 3063 3064 3066 3067 3068 3069 3070 3071
3090 3088 3086 3084 3082 3080 3078 3076 3074 3073 3071 3069 3067 3065 3063 3061 3059 3057 3055 3053 3052 3050 3048 3047 3045 3044 3043 3041 3040 3038 3037 3035 3034 3033 3032 3031 3030 3029 3028 3028 3028 3028 3028 3028 3029 3030 3031 3032 3032 3034 3035 3036 3037 3037 3038 3040 3041 3041 3041 3042 3043 3044 3045 3046 3047 3048 3049 3050 3051 3052 3053 3054 3055 3057 3058 3059 3060 3061 3063 3064 3065 3066 3067 3068 3068
3091 3089 3087 3085 3083 3081 3079 3077 3076 3074 3072 3070 3068 3066 3065 3063 3060 3058 3056 3054 3052 3050 3049 3047 3045 3044 3042 3041 3040 3039 3037 3036 3035 3034 3032 3031 3030 3029 3029 3028 3028 3027 3027 3027 3027 3028 3029 3030 3030 3031 3032 3033 3034 3035 3036 3037 3038 3038 3039 3040 3041 3041 3042 3043 3044 3045 3046 3047 3048 3049 3050 3052 3053 3054 3056 3057 3058 3060 3062 3063 3064 3064 3065 3065 3066
3091 3090 3088 3086 3084 3082 3080 3079 3077 3075 3073 3071 3069 3067 3065 3063 3062 3060 3057 3055 3053 3051 3049 3047 3046 3044 3042 3041 3039 3038 3037 3036 3035 3034 3033 3032 3031 3030 3029 3028 3028 3028 3028 3027 3027 3027 3027 3028 3028 3029 3030 3031 3032 3032 3033 3034 3034 3035 3036 3037 3038 3039 3040 3041 3042 3043 3043 3045 3046 3048 3049 3051 3052 3053 3054 3056 3057 3059 3060 3061 3062 3062 3063 3063 3063
3091 3090 3088 3087 3085 3083 3081 3080 3078 3076 3074 3073 3071 3068 3066 3064 3062 3060 3058 3056 3054 3051 3049 3047 3046 3044 3042 3041 3039 3038 3037 3036 3035 3035 3034 3033 3032 3031 3030 3029 3028 3028 3028 3028 3028 3027 3027 3027 3028 3028 3028 3029 3030 3030 3031 3032 3032 3033 3034 3035 3036 3037 3039 3040 3041 3041 3042 3043 3045 3047 3049 3050 3051 3053 3054 3055 3056 3057 3058 3059 3060 3060 3061 3061 3061
3092 3090 3089 3087 3086 3085 3083 3081 3079 3077 3076 3074 3071 3069 3067 3065 3062 3060 3058 3057 3055 3052 3050 3048 3046 3044 3042 3041 3039 3038 3037 3035 3034 3034 3033 3033 3032 3031 3031 3030 3029 3029 3028 3028 3028 3028 3028 3028 3028 3028 3029 3029 3029 3030 3030 3031 3032 3032 3033 3034 3036 3037 3038 3039 3040 3040 3041 3042 3044 3046 3048 3050 3051 3052 3053 3054 3055 3056 3057 3057 3058 3058 3058 3058 3058
3092 3090 3089 3087 3086 3085 3084 3082 3080 3078 3076 3074 3072 3070 3068 3065 3063 3061 3058 3057 3055 3053 3051 3049 3047 3045 3043 3041 3040 3038 3036 3035 3034 3033 3033 3032 3032 3031 3031 3030 3030 3029 3029 3028 3028 3028 3028 3028 3028 3029 3029 3030 3030 3030 3031 3031 3032 3032 3033 3034 3036 3037 3038 3039 3039 3040 3041 3042 3044 3046 3048 3049 3050 3051 3052 3053 3054 3054 3055 3055 3055 3055 3055 3055 3054
3092 3090 3089 3087 3086 3085 3083 3082 3080 3078 3076 3074 3073 3071 3068 3065 3063 3061 3059 3056 3054 3053 3051 3049 3047 3045 3043 3041 3040 3038 3037 3035 3034 3033 3032 3032 3031 3031 3031 3030 3030 3030 3029 3029 3028 3028 3028 3028 3028 3029 3029 3030 3030 3030 3031 3031 3032 3033 3034 3035 3036 3037 3038 3038 3039 3040 3041 3043 3044 3046 3047 3049 3050 3051 3051 3052 3052 3052 3052 3053 3053 3052 3052 3052 3051
3091 3090 3089 3087 3085 3084 3083 3081 3079 3078 3076 3075 3073 3071 3068 3066 3064 3061 3059 3056 3054 3052 3051 3049 3047 3045 3043 3041 3040 3038 3037 3036 3034 3033 3032 3031 3030 3030 3030 3030 3030 3029 3029 3029 3029 3029 3029 3029 3029 3029 3029 3029 3030 3030 3031 3032 3032 3033 3034 3035 3036 3037 3038 3039 3039 3040 3042 3043 3044 3046 3047 3048 3048 3049 3049 3050 3050 3050 3050 3050 3050 3050 3049 3049 3049
3091 3090 3088 3087 3085 3083 3082 3080 3079 3078 3076 3074 3073 3071 3069 3067 3064 3062 3059 3057 3054 3052 3050 3048 3047 3045 3043 3041 3040 3038 3037 3035 3034 3033 3032 3031 3030 3030 3029 3029 3029 3029 3029 3028 3028 3029 3029 3029 3029 3029 3029 3030 3030 3031 3032 3032 3033 3034 3035 3036 3037 3037 3038 3039 3040 3041 3042 3043 3044 3044 3045 3046 3047 3047 3048 3048 3048 3048 3048 3048 3047 3047 3047 3047 3046
3091 3089 3088 3087 3085 3083 3081 3080 3079 3078 3076 3074 3073 3072 3069 3067 3064 3062 3059 3057 3055 3052 3050 3048 3046 3045 3043 3041 3040 3038 3037 3035 3034 3033 3032 3031 3030 3029 3029 3029 3029 3029 3028 3028 3028 3028 3029 3029 3029 3029 3030 3030 3031 3031 3032 3033 3034 3035 3036 3036 3037 3037 3038 3039 3040 3040 3041 3042 3043 3043 3044 3045 3045 3046 3046 3046 3046 3046 3046 3046 3045 3045 3044 3043 3042
3090 3089 3087 3086 3084 3083 3081 3080 3078 3077 3075 3074 3073 3071 3069 3066 3064 3062 3060 3057 3055 3053 3050 3048 3046 3045 3043 3041 3040 3038 3037 3035 3034 3033 3032 3032 3031 3030 3029 3029 3029 3029 3028 3028 3028 3028 3029 3029 3029 3030 3030 3030 3031 3032 3033 3033 3034 3035 3036 3036 3037 3037 3038 3038 3039 3040 3040 3041 3042 3042 3043 3043 3044 3044 3044 3044 3044 3044 3043 3043 3042 3042 3041 3040 3040
3090 3088 3087 3085 3084 3082 3081 3079 3078 3077 3075 3074 3072 3070 3068 3066 3064 3063 3060 3058 3055 3053 3051 3048 3046 3044 3043 3041 3040 3038 3037 3035 3034 3033 3032 3031 3031 3030 3030 3029 3029 3029 3029 3029 3029 3029 3029 3029 3029 3030 3030 3031 3031 3032 3033 3033 3034 3035 3036 3036 3036 3037 3037 3038 3038 3039 3039 3040 3040 3041 3041 3042 3042 3042 3042 3042 3042 3041 3041 3040 3039 3039 3039 3039 3039
3089 3087 3086 3084 3083 3081 3080 3079 3077 3076 3074 3072 3071 3069 3068 3066 3065 3063 3062 3059 3056 3053 3051 3049 3047 3045 3043 3041 3040 3039 3037 3035 3034 3033 3032 3031 3031 3030 3030 3030 3029 3029 3029 3029 3029 3029 3029 3029 3030 3030 3030 3031 3031 3032 3033 3033 3034 3034 3035 3035 3036 3036 3036 3037 3037 3038 3038 3039 3039 3039 3040 3040 3040 3040 3040 3040 3040 3039 3039 3038 3038 3039 3039 3039 3039
3088 3086 3085 3083 3082 3080 3079 3078 3076 3075 3073 3072 3070 3069 3068 3066 3065 3063 3062 3060 3057 3054 3051 3049 3047 3045 3044 3042 3040 3039 3037 3036 3034 3033 3032 3031 3031 3030 3030 3030 3029 3029 3029 3029 3029 3029 3029 3029 3030 3030 3031 3031 3032 3032 3032 3033 3033 3034 3034 3034 3035 3035 3035 3036 3036 3036 3037 3037 3037 3038 3038 3038 3038 3038 3038 3038 3038 3038 3038 3038 3038 3039 3039 3038 3038
3087 3085 3084 3082 3081 3079 3078 3077 3075 3074 3072 3071 3070 3069 3067 3066 3065 3063 3061 3059 3057 3054 3052 3050 3048 3046 3044 3043 3041 3039 3038 3036 3035 3034 3033 3032 3031 3030 3030 3030 3029 3029 3029 3029 3029 3029 3029 3029 3030 3030 3031 3031 3031 3032 3032 3033 3033 3033 3033 3034 3034 3034 3034 3035 3035 3035 3035 3036 3036 3036 3036 3037 3037 3037 3037 3037 3037 3038 3038 3038 3038 3038 3038 3037 3037
3086 3084 3083 3081 3080 3078 3077 3076 3075 3073 3072 3070 3069 3068 3067 3065 3064 3063 3061 3059 3056 3055 3053 3051 3049 3047 3045 3043 3042 3040 3038 3037 3035 3034 3033 3032 3031 3030 3030 3029 3029 3029 3029 3029 3029 3029 3029 3029 3030 3030 3030 3031 3031 3032 3032 3032 3032 3033 3033 3033 3033 3033 3033 3033 3034 3034 3034 3035 3035 3035 3035 3036 3036 3036 3036 3036 3036 3036 3036 3036 3036 3036 3036 3036 3035
3084 3083 3081 3080 3079 3078 3076 3075 3074 3073 3071 3070 3069 3067 3066 3064 3063 3062 3060 3059 3057 3055 3054 3052 3050 3048 3046 3044 3042 3040 3039 3037 3036 3034 3033 3032 3031 3030 3030 3029 3029 3029 3029 3029 3029 3029 3029 3029 3029 3030 3030 3030 3031 3031 3031 3031 3032 3032 3032 3032 3032 3032 3032 3032 3033 3033 3034 3034 3034 3034 3035 3035 3035 3035 3035 3035 3035 3035 3035 3035 3035 3035 3035 3034 3034
3083 3082 3081 3079 3078 3077 3076 3075 3073 3072 3071 3069 3068 3066 3065 3064 3062 3061 3060 3058 3057 3055 3054 3053 3051 3049 3047 3045 3043 3041 3039 3037 3036 3034 3033 3033 3032 3031 3030 3029 3029 3028 3028 3028 3028 3029 3029 3029 3029 3029 3030 3030 3030 3030 3030 3031 3031 3031 3031 3031 3031 3031 3031 3032 3032 3032 3032 3032 3033 3033 3034 3034 3034 3034 3034 3034 3034 3034 3034 3034 3034 3034 3034 3033 3033
3082 3081 3080 3078 3077 3076 3075 3074 3072 3071 3070 3069 3067 3066 3064 3063 3061 3060 3059 3057 3056 3055 3053 3052 3051 3049 3047 3046 3044 3042 3040 3038 3036 3035 3033 3032 3032 3031 3030 3029 3029 3028 3028 3028 3028 3028 3028 3028 3029 3029 3029 3029 3029 3030 3029 3029 3029 3029 3029 3030 3030 3030 3030 3031 3031 3031 3031 3031 3032 3032 3033 3033 3033 3033 3033 3033 3033 3033 3033 3033 3033 3033 3033 3033 3032
3081 3079 3078 3077 3076 3075 3074 3073 3071 3070 3069 3068 3066 3065 3063 3062 3061 3059 3058 3056 3055 3054 3053 3051 3050 3048 3047 3046 3044 3042 3040 3039 3037 3036 3034 3033 3032 3031 3031 3030 3029 3028 3028 3027 3027 3028 3028 3028 3028 3028 3028 3028 3028 3028 3028 3028 3028 3028 3028 3028 3029 3029 3029 3029 3030 3030 3030 3031 3031 3031 3032 3032 3031 3031 3031 3032 3032 3032 3032 3033 3032 3032 3032 3032 3032